{"data":{"norad_id":59770,"intl_designator":"2024-091T","name":"STARLINK-31829","alt_names":[],"object_type":"PAYLOAD","status":"ACTIVE","operator":null,"country":"US","launch_date":"2024-05-14","launch_site_code":"AFWTR","launch_vehicle":null,"mission":null,"orbit_class":"UNKNOWN","rcs_meters":null,"size_class":null,"mass_kg":null,"dimensions":null,"purposes":["comms"],"wikipedia_slug":null,"has_3d_model":false,"image_url":null,"decayed_at":null,"tle_current":{"epoch":"2026-09-21T02:41:31.453440Z","epoch_age_seconds":118377,"freshness":"FRESH","line1":"1 59770U 24091T   26264.11216960  .00001029  00000+0  41590-4 0  9994","line2":"2 59770  53.1607 198.5173 0001832  80.3688 279.7522 15.34401175132936","mean_motion":15.34401175,"eccentricity":0.0001832,"inclination_deg":53.1607,"raan_deg":198.5173,"arg_perigee_deg":80.3688,"mean_anomaly_deg":279.7522,"bstar":4.159e-5,"rev_number":13293,"period_min":93.847686215438,"perigee_km":461.4465065695,"apogee_km":463.95298915392,"semimajor_km":6840.8367478617,"source":"CELESTRAK","updated_at":"2026-09-22T09:00:49.070400Z"}}}